TimeEST,TemperatureF,Dew PointF,Humidity,Sea Level PressureIn,VisibilityMPH,Wind Direction,Wind SpeedMPH,Gust SpeedMPH,PrecipitationIn,Events,Conditions,WindDirDegrees,DateUTC
12:15 AM,30.2,21.7,71,30.18,10.0,NNW,9.2,17.3,N/A,,Overcast,330,2012-12-15 05:15:00
12:35 AM,29.8,21.2,70,30.19,10.0,NNW,9.2,-,N/A,,Overcast,340,2012-12-15 05:35:00
12:55 AM,29.3,20.7,70,30.18,10.0,NW,12.7,17.3,N/A,,Overcast,320,2012-12-15 05:55:00
1:15 AM,28.9,20.1,70,30.19,10.0,NW,12.7,17.3,N/A,,Overcast,320,2012-12-15 06:15:00
1:35 AM,28.4,20.1,71,30.20,10.0,North,5.8,-,N/A,,Overcast,350,2012-12-15 06:35:00
1:55 AM,27.5,19.8,73,30.21,10.0,NNW,6.9,-,N/A,,Overcast,340,2012-12-15 06:55:00
2:15 AM,26.8,19.4,74,30.22,10.0,NNW,8.1,-,N/A,,Overcast,330,2012-12-15 07:15:00
2:35 AM,26.4,18.7,73,30.23,10.0,NNW,4.6,-,N/A,,Overcast,340,2012-12-15 07:35:00
2:55 AM,24.8,17.6,74,30.23,10.0,North,5.8,-,N/A,,Overcast,360,2012-12-15 07:55:00
3:15 AM,24.8,17.8,75,30.23,10.0,NNW,4.6,-,N/A,,Overcast,340,2012-12-15 08:15:00
3:35 AM,24.3,16.9,73,30.23,10.0,NNW,4.6,-,N/A,,Overcast,340,2012-12-15 08:35:00
3:55 AM,23.2,16.5,76,30.23,10.0,Calm,Calm,-,N/A,,Overcast,0,2012-12-15 08:55:00
4:15 AM,22.8,16.0,75,30.24,10.0,WNW,9.2,-,N/A,,Mostly Cloudy,300,2012-12-15 09:15:00
4:35 AM,21.7,14.9,75,30.25,10.0,WNW,8.1,-,N/A,,Scattered Clouds,300,2012-12-15 09:35:00
4:55 AM,20.1,14.2,78,30.25,10.0,NNW,6.9,-,N/A,,Scattered Clouds,330,2012-12-15 09:55:00
5:15 AM,18.9,13.3,79,30.26,10.0,North,4.6,-,N/A,,Scattered Clouds,350,2012-12-15 10:15:00
5:35 AM,18.3,12.2,77,30.27,10.0,NNW,6.9,-,N/A,,Clear,340,2012-12-15 10:35:00
5:55 AM,18.0,11.1,75,30.27,10.0,NNW,5.8,-,N/A,,Clear,340,2012-12-15 10:55:00
6:15 AM,17.2,10.9,76,30.28,10.0,WNW,5.8,-,N/A,,Clear,300,2012-12-15 11:15:00
6:35 AM,16.5,10.4,77,30.30,10.0,North,3.5,-,N/A,,Clear,360,2012-12-15 11:35:00
6:55 AM,15.8,10.4,79,30.30,10.0,North,5.8,-,N/A,,Clear,350,2012-12-15 11:55:00
7:15 AM,14.5,9.1,79,30.31,10.0,NNE,3.5,-,N/A,,Clear,20,2012-12-15 12:15:00
7:35 AM,15.8,10.8,80,30.32,10.0,Calm,Calm,-,N/A,,Clear,0,2012-12-15 12:35:00
7:55 AM,16.3,10.4,77,30.32,10.0,NNW,4.6,-,N/A,,Clear,330,2012-12-15 12:55:00
8:15 AM,17.2,10.8,76,30.32,10.0,Calm,Calm,-,N/A,,Clear,0,2012-12-15 13:15:00
8:35 AM,17.4,11.1,76,30.33,10.0,Calm,Calm,-,N/A,,Clear,0,2012-12-15 13:35:00
8:55 AM,18.3,10.9,73,30.33,10.0,Calm,Calm,-,N/A,,Clear,0,2012-12-15 13:55:00
9:15 AM,19.0,10.9,71,30.33,10.0,Calm,Calm,-,N/A,,Clear,0,2012-12-15 14:15:00
9:35 AM,19.4,10.9,70,30.34,10.0,Calm,Calm,-,N/A,,Clear,0,2012-12-15 14:35:00
9:55 AM,20.1,10.8,67,30.34,10.0,Calm,Calm,-,N/A,,Clear,0,2012-12-15 14:55:00
10:15 AM,21.6,10.9,64,30.34,10.0,Calm,Calm,-,N/A,,Clear,0,2012-12-15 15:15:00
10:35 AM,21.9,10.4,61,30.34,10.0,Calm,Calm,-,N/A,,Clear,0,2012-12-15 15:35:00
10:55 AM,22.5,10.4,60,30.34,10.0,Calm,Calm,-,N/A,,Clear,0,2012-12-15 15:55:00
11:15 AM,23.5,9.7,56,30.33,10.0,NNW,3.5,-,N/A,,Clear,330,2012-12-15 16:15:00
11:35 AM,24.1,8.1,51,30.32,10.0,Calm,Calm,-,N/A,,Clear,0,2012-12-15 16:35:00
11:55 AM,24.8,7.3,48,30.32,10.0,Calm,Calm,-,N/A,,Clear,0,2012-12-15 16:55:00
12:15 PM,26.1,6.3,43,30.31,10.0,Calm,Calm,-,N/A,,Clear,0,2012-12-15 17:15:00
12:35 PM,26.4,3.6,38,30.31,10.0,NNE,5.8,-,N/A,,Clear,20,2012-12-15 17:35:00
12:55 PM,27.5,-6.3,23,30.30,10.0,NNW,4.6,-,N/A,,Clear,330,2012-12-15 17:55:00
1:15 PM,28.0,-0.9,29,30.30,10.0,North,3.5,-,N/A,,Clear,10,2012-12-15 18:15:00
1:35 PM,27.5,-2.7,27,30.30,10.0,West,3.5,-,N/A,,Clear,270,2012-12-15 18:35:00
1:55 PM,27.7,-3.6,26,30.29,10.0,WNW,5.8,-,N/A,,Clear,300,2012-12-15 18:55:00
2:15 PM,27.5,-4.9,24,30.29,10.0,North,3.5,-,N/A,,Clear,350,2012-12-15 19:15:00
2:35 PM,26.8,-1.7,29,30.29,10.0,North,5.8,-,N/A,,Clear,360,2012-12-15 19:35:00
2:55 PM,26.1,-2.7,29,30.29,10.0,North,8.1,-,N/A,,Clear,360,2012-12-15 19:55:00
3:15 PM,25.3,-4.7,27,30.28,10.0,North,6.9,-,N/A,,Clear,360,2012-12-15 20:15:00
3:35 PM,24.1,-2.9,31,30.28,10.0,North,6.9,-,N/A,,Clear,350,2012-12-15 20:35:00
3:55 PM,23.5,-5.3,28,30.28,10.0,NNW,5.8,-,N/A,,Clear,330,2012-12-15 20:55:00
4:15 PM,21.2,-2.0,36,30.29,10.0,NNW,4.6,-,N/A,,Clear,330,2012-12-15 21:15:00
4:35 PM,21.0,-0.2,40,30.29,10.0,NNW,4.6,-,N/A,,Clear,340,2012-12-15 21:35:00
4:55 PM,20.5,0.1,41,30.30,10.0,West,3.5,-,N/A,,Clear,280,2012-12-15 21:55:00
5:15 PM,20.3,1.0,43,30.30,10.0,Calm,Calm,-,N/A,,Clear,0,2012-12-15 22:15:00
5:35 PM,20.1,0.5,42,30.31,10.0,Calm,Calm,-,N/A,,Clear,0,2012-12-15 22:35:00
5:55 PM,19.8,1.6,45,30.32,10.0,Calm,Calm,-,N/A,,Clear,0,2012-12-15 22:55:00
6:15 PM,18.5,3.6,52,30.32,10.0,Calm,Calm,-,N/A,,Clear,0,2012-12-15 23:15:00
6:35 PM,17.1,3.2,55,30.31,10.0,North,4.6,-,N/A,,Clear,10,2012-12-15 23:35:00
6:55 PM,18.3,3.0,51,30.32,10.0,Calm,Calm,-,N/A,,Clear,0,2012-12-15 23:55:00
7:15 PM,17.2,3.7,56,30.32,10.0,Calm,Calm,-,N/A,,Clear,0,2012-12-16 00:15:00
7:35 PM,16.9,3.2,55,30.32,10.0,Calm,Calm,-,N/A,,Clear,0,2012-12-16 00:35:00
7:55 PM,17.1,3.7,56,30.32,10.0,Calm,Calm,-,N/A,,Clear,0,2012-12-16 00:55:00
8:15 PM,16.2,4.1,59,30.32,10.0,Calm,Calm,-,N/A,,Clear,0,2012-12-16 01:15:00
8:35 PM,16.2,3.6,58,30.30,10.0,Calm,Calm,-,N/A,,Clear,0,2012-12-16 01:35:00
8:55 PM,15.4,3.9,60,30.30,10.0,Calm,Calm,-,N/A,,Clear,0,2012-12-16 01:55:00
9:15 PM,14.9,3.6,61,30.30,10.0,Calm,Calm,-,N/A,,Clear,0,2012-12-16 02:15:00
9:35 PM,14.9,3.9,62,30.30,10.0,WSW,3.5,-,N/A,,Clear,240,2012-12-16 02:35:00
9:55 PM,13.3,5.0,70,30.30,10.0,Calm,Calm,-,N/A,,Clear,0,2012-12-16 02:55:00
10:15 PM,13.1,5.4,71,30.30,10.0,Calm,Calm,-,N/A,,Clear,0,2012-12-16 03:15:00
10:35 PM,12.9,5.4,72,30.30,10.0,Calm,Calm,-,N/A,,Clear,0,2012-12-16 03:35:00
10:55 PM,12.4,5.2,73,30.30,10.0,ENE,6.9,-,N/A,,Clear,60,2012-12-16 03:55:00
11:15 PM,11.8,5.4,75,30.29,10.0,Calm,Calm,-,N/A,,Clear,0,2012-12-16 04:15:00
11:35 PM,11.3,6.1,80,30.28,10.0,Calm,Calm,-,N/A,,Clear,0,2012-12-16 04:35:00
11:55 PM,11.3,6.8,82,30.28,10.0,Calm,Calm,-,N/A,,Clear,0,2012-12-16 04:55:00